Time,TemperatureF,DewpointF,PressureIn,WindDirection,WindDirectionDegrees,WindSpeedMPH,WindSpeedGustMPH,Humidity,HourlyPrecipIn,Conditions,Clouds,dailyrainin,SoftwareType,DateUTC
2013-06-07 00:03:00,52.4,50.1,29.91,WSW,238,0.0,25.0,92,0.00,,,0.00,Wunderground v.1.15,2013-06-07 07:03:00,
2013-06-07 00:09:00,52.4,50.1,29.91,WSW,238,0.0,25.0,92,0.00,,,0.00,Wunderground v.1.15,2013-06-07 07:09:00,
2013-06-07 00:15:00,52.3,50.0,29.91,WSW,238,0.0,25.0,92,0.00,,,0.00,Wunderground v.1.15,2013-06-07 07:15:00,
2013-06-07 00:21:00,52.2,49.9,29.91,WSW,238,0.0,25.0,92,0.00,,,0.00,Wunderground v.1.15,2013-06-07 07:21:00,
2013-06-07 00:26:00,52.2,49.9,29.91,WSW,238,0.0,25.0,92,0.00,,,0.00,Wunderground v.1.15,2013-06-07 07:26:00,
2013-06-07 00:32:00,52.1,49.8,29.91,WSW,238,0.0,25.0,92,0.00,,,0.00,Wunderground v.1.15,2013-06-07 07:32:00,
2013-06-07 00:37:00,52.0,49.7,29.91,WSW,238,0.0,25.0,92,0.00,,,0.00,Wunderground v.1.15,2013-06-07 07:37:00,
2013-06-07 00:43:00,52.0,49.7,29.91,WSW,238,0.0,25.0,92,0.00,,,0.00,Wunderground v.1.15,2013-06-07 07:43:00,
2013-06-07 00:49:00,52.0,49.7,29.90,WSW,238,0.0,25.0,92,0.00,,,0.00,Wunderground v.1.15,2013-06-07 07:49:00,
2013-06-07 00:55:00,52.2,50.2,29.90,WSW,238,0.0,25.0,93,0.00,,,0.00,Wunderground v.1.15,2013-06-07 07:55:00,
2013-06-07 01:01:00,52.4,50.4,29.90,WSW,238,0.0,25.0,93,0.00,,,0.00,Wunderground v.1.15,2013-06-07 08:01:00,
2013-06-07 01:07:00,52.7,51.0,29.90,WSW,238,0.0,25.0,94,0.00,,,0.00,Wunderground v.1.15,2013-06-07 08:07:00,
2013-06-07 01:13:00,53.1,51.4,29.90,WSW,238,0.0,25.0,94,0.00,,,0.00,Wunderground v.1.15,2013-06-07 08:13:00,
2013-06-07 01:19:00,53.5,51.8,29.90,WSW,238,0.0,25.0,94,0.00,,,0.00,Wunderground v.1.15,2013-06-07 08:19:00,
2013-06-07 01:25:00,53.8,52.4,29.90,WSW,238,0.0,25.0,95,0.00,,,0.00,Wunderground v.1.15,2013-06-07 08:25:00,
2013-06-07 01:31:00,54.1,52.4,29.90,WSW,238,0.0,25.0,94,0.00,,,0.00,Wunderground v.1.15,2013-06-07 08:31:00,
2013-06-07 01:37:00,54.5,53.1,29.89,WSW,244,0.0,25.0,95,0.00,,,0.00,Wunderground v.1.15,2013-06-07 08:37:00,
2013-06-07 01:43:00,55.0,53.6,29.89,WSW,244,0.0,25.0,95,0.00,,,0.00,Wunderground v.1.15,2013-06-07 08:43:00,
2013-06-07 01:49:00,55.3,53.6,29.89,West,275,0.0,25.0,94,0.00,,,0.00,Wunderground v.1.15,2013-06-07 08:49:00,
2013-06-07 01:54:00,55.5,53.8,29.89,West,275,0.0,25.0,94,0.00,,,0.00,Wunderground v.1.15,2013-06-07 08:54:00,
2013-06-07 02:01:00,55.6,53.9,29.88,West,275,0.0,25.0,94,0.00,,,0.00,Wunderground v.1.15,2013-06-07 09:01:00,
2013-06-07 02:07:00,55.8,54.1,29.88,West,275,0.0,25.0,94,0.00,,,0.00,Wunderground v.1.15,2013-06-07 09:07:00,
2013-06-07 02:12:00,55.9,53.9,29.88,West,275,0.0,25.0,93,0.00,,,0.00,Wunderground v.1.15,2013-06-07 09:12:00,
2013-06-07 02:17:00,56.0,54.0,29.88,West,275,0.0,25.0,93,0.00,,,0.00,Wunderground v.1.15,2013-06-07 09:17:00,
2013-06-07 02:23:00,56.1,54.1,29.88,NW,323,0.0,25.0,93,0.00,,,0.00,Wunderground v.1.15,2013-06-07 09:23:00,
2013-06-07 02:30:00,56.1,54.1,29.88,NW,312,0.0,25.0,93,0.00,,,0.00,Wunderground v.1.15,2013-06-07 09:30:00,
2013-06-07 02:35:00,56.2,54.2,29.88,NW,309,0.0,25.0,93,0.00,,,0.00,Wunderground v.1.15,2013-06-07 09:35:00,
2013-06-07 02:40:00,56.3,54.3,29.88,NW,309,0.0,25.0,93,0.00,,,0.00,Wunderground v.1.15,2013-06-07 09:40:00,
2013-06-07 02:46:00,56.3,54.3,29.88,NW,306,0.0,25.0,93,0.00,,,0.00,Wunderground v.1.15,2013-06-07 09:46:00,
2013-06-07 02:52:00,56.3,54.0,29.87,NW,306,0.0,25.0,92,0.00,,,0.00,Wunderground v.1.15,2013-06-07 09:52:00,
2013-06-07 02:57:00,56.4,54.1,29.88,NW,306,0.0,25.0,92,0.00,,,0.00,Wunderground v.1.15,2013-06-07 09:57:00,
2013-06-07 03:03:00,56.4,54.1,29.88,NW,306,0.0,25.0,92,0.00,,,0.00,Wunderground v.1.15,2013-06-07 10:03:00,
2013-06-07 03:08:00,56.5,54.2,29.87,NW,306,0.0,25.0,92,0.00,,,0.00,Wunderground v.1.15,2013-06-07 10:08:00,
2013-06-07 03:14:00,56.5,54.2,29.88,NW,306,0.0,25.0,92,0.00,,,0.00,Wunderground v.1.15,2013-06-07 10:14:00,
2013-06-07 03:20:00,56.6,54.3,29.88,NW,306,0.0,25.0,92,0.00,,,0.00,Wunderground v.1.15,2013-06-07 10:20:00,
2013-06-07 03:27:00,56.6,54.3,29.87,NW,306,0.0,25.0,92,0.00,,,0.00,Wunderground v.1.15,2013-06-07 10:27:00,
2013-06-07 03:33:00,56.6,54.3,29.87,NW,306,0.0,25.0,92,0.00,,,0.00,Wunderground v.1.15,2013-06-07 10:33:00,
2013-06-07 03:39:00,56.6,54.0,29.87,NW,306,0.0,25.0,91,0.00,,,0.00,Wunderground v.1.15,2013-06-07 10:39:00,
2013-06-07 03:45:00,56.6,54.3,29.87,NW,306,0.0,25.0,92,0.00,,,0.00,Wunderground v.1.15,2013-06-07 10:45:00,
2013-06-07 03:50:00,56.6,54.0,29.87,North,5,0.0,25.0,91,0.00,,,0.00,Wunderground v.1.15,2013-06-07 10:50:00,
2013-06-07 03:56:00,56.6,54.0,29.87,North,360,0.0,25.0,91,0.00,,,0.00,Wunderground v.1.15,2013-06-07 10:56:00,
2013-06-07 04:02:00,56.6,54.0,29.87,North,360,0.0,25.0,91,0.00,,,0.00,Wunderground v.1.15,2013-06-07 11:02:00,
2013-06-07 04:07:00,56.6,54.0,29.87,North,360,0.0,25.0,91,0.00,,,0.00,Wunderground v.1.15,2013-06-07 11:07:00,
2013-06-07 04:13:00,56.6,54.0,29.86,North,351,0.0,25.0,91,0.00,,,0.00,Wunderground v.1.15,2013-06-07 11:13:00,
2013-06-07 04:20:00,56.5,53.9,29.86,North,351,0.0,25.0,91,0.00,,,0.00,Wunderground v.1.15,2013-06-07 11:20:00,
2013-06-07 04:26:00,56.4,53.8,29.86,North,355,0.0,25.0,91,0.00,,,0.00,Wunderground v.1.15,2013-06-07 11:26:00,
2013-06-07 04:31:00,56.4,53.8,29.86,North,355,0.0,25.0,91,0.00,,,0.00,Wunderground v.1.15,2013-06-07 11:31:00,
2013-06-07 04:37:00,56.3,54.0,29.86,North,355,0.0,25.0,92,0.00,,,0.00,Wunderground v.1.15,2013-06-07 11:37:00,
2013-06-07 04:42:00,56.3,54.0,29.86,North,355,0.0,25.0,92,0.00,,,0.00,Wunderground v.1.15,2013-06-07 11:42:00,
2013-06-07 04:48:00,56.3,54.0,29.86,North,355,0.0,25.0,92,0.00,,,0.00,Wunderground v.1.15,2013-06-07 11:48:00,
2013-06-07 04:54:00,56.3,54.0,29.86,North,355,0.0,25.0,92,0.00,,,0.00,Wunderground v.1.15,2013-06-07 11:54:00,
2013-06-07 05:00:00,56.3,54.0,29.86,North,355,0.0,25.0,92,0.00,,,0.00,Wunderground v.1.15,2013-06-07 12:00:00,
2013-06-07 05:05:00,56.2,53.9,29.86,North,355,0.0,25.0,92,0.00,,,0.00,Wunderground v.1.15,2013-06-07 12:05:00,
2013-06-07 05:10:00,56.3,54.0,29.86,North,355,0.0,25.0,92,0.00,,,0.00,Wunderground v.1.15,2013-06-07 12:10:00,
2013-06-07 05:15:00,56.3,54.0,29.86,North,355,0.0,25.0,92,0.00,,,0.00,Wunderground v.1.15,2013-06-07 12:15:00,
2013-06-07 05:20:00,56.3,54.0,29.86,North,355,0.0,25.0,92,0.00,,,0.00,Wunderground v.1.15,2013-06-07 12:20:00,
2013-06-07 05:26:00,56.3,54.0,29.86,North,355,0.0,25.0,92,0.00,,,0.00,Wunderground v.1.15,2013-06-07 12:26:00,
2013-06-07 05:32:00,56.3,54.0,29.86,North,351,0.0,25.0,92,0.00,,,0.00,Wunderground v.1.15,2013-06-07 12:32:00,
2013-06-07 05:38:00,56.3,54.0,29.86,North,360,0.0,25.0,92,0.00,,,0.00,Wunderground v.1.15,2013-06-07 12:38:00,
2013-06-07 05:44:00,56.2,53.9,29.86,North,360,0.0,25.0,92,0.00,,,0.00,Wunderground v.1.15,2013-06-07 12:44:00,
2013-06-07 05:50:00,56.2,53.9,29.86,North,360,0.0,25.0,92,0.00,,,0.00,Wunderground v.1.15,2013-06-07 12:50:00,
2013-06-07 05:56:00,56.2,53.9,29.86,North,360,0.0,25.0,92,0.00,,,0.00,Wunderground v.1.15,2013-06-07 12:56:00,
2013-06-07 06:01:00,56.3,54.0,29.87,North,360,0.0,25.0,92,0.00,,,0.00,Wunderground v.1.15,2013-06-07 13:01:00,
2013-06-07 06:07:00,56.3,54.0,29.87,North,360,0.0,25.0,92,0.00,,,0.00,Wunderground v.1.15,2013-06-07 13:07:00,
2013-06-07 06:13:00,56.3,54.0,29.87,North,360,0.0,25.0,92,0.00,,,0.00,Wunderground v.1.15,2013-06-07 13:13:00,
2013-06-07 06:18:00,56.3,54.0,29.87,North,360,0.0,25.0,92,0.00,,,0.00,Wunderground v.1.15,2013-06-07 13:18:00,
2013-06-07 06:24:00,56.3,54.0,29.87,North,355,0.0,25.0,92,0.00,,,0.00,Wunderground v.1.15,2013-06-07 13:24:00,
2013-06-07 06:30:00,56.3,54.0,29.87,North,355,0.0,25.0,92,0.00,,,0.00,Wunderground v.1.15,2013-06-07 13:30:00,
2013-06-07 06:35:00,56.4,54.1,29.87,North,355,0.0,25.0,92,0.00,,,0.00,Wunderground v.1.15,2013-06-07 13:35:00,
2013-06-07 06:41:00,56.4,54.1,29.87,North,360,0.0,25.0,92,0.00,,,0.00,Wunderground v.1.15,2013-06-07 13:41:00,
2013-06-07 06:47:00,56.4,54.1,29.86,North,360,0.0,25.0,92,0.00,,,0.00,Wunderground v.1.15,2013-06-07 13:47:00,
2013-06-07 06:53:00,56.4,54.1,29.86,North,360,0.0,25.0,92,0.00,,,0.00,Wunderground v.1.15,2013-06-07 13:53:00,
2013-06-07 06:58:00,56.5,54.2,29.87,North,360,0.0,25.0,92,0.00,,,0.00,Wunderground v.1.15,2013-06-07 13:58:00,
2013-06-07 07:04:00,56.5,54.2,29.87,North,360,0.0,25.0,92,0.00,,,0.00,Wunderground v.1.15,2013-06-07 14:04:00,
2013-06-07 07:11:00,56.6,54.3,29.87,North,5,0.0,25.0,92,0.00,,,0.00,Wunderground v.1.15,2013-06-07 14:11:00,
2013-06-07 07:16:00,56.7,54.4,29.87,North,5,0.0,25.0,92,0.00,,,0.00,Wunderground v.1.15,2013-06-07 14:16:00,
2013-06-07 07:22:00,56.7,54.4,29.87,North,5,0.0,25.0,92,0.00,,,0.00,Wunderground v.1.15,2013-06-07 14:22:00,
2013-06-07 07:27:00,56.7,54.4,29.87,North,5,0.0,25.0,92,0.00,,,0.00,Wunderground v.1.15,2013-06-07 14:27:00,
2013-06-07 07:33:00,56.8,54.2,29.87,East,87,0.0,25.0,91,0.00,,,0.00,Wunderground v.1.15,2013-06-07 14:33:00,
2013-06-07 07:39:00,56.8,54.5,29.87,East,87,0.0,25.0,92,0.00,,,0.00,Wunderground v.1.15,2013-06-07 14:39:00,
2013-06-07 07:44:00,56.9,54.3,29.87,ESE,108,0.0,25.0,91,0.00,,,0.00,Wunderground v.1.15,2013-06-07 14:44:00,
2013-06-07 07:50:00,57.0,54.4,29.87,ESE,103,0.0,25.0,91,0.00,,,0.00,Wunderground v.1.15,2013-06-07 14:50:00,
2013-06-07 07:55:00,57.0,54.4,29.87,ESE,103,0.0,25.0,91,0.00,,,0.00,Wunderground v.1.15,2013-06-07 14:55:00,
2013-06-07 08:00:00,57.2,54.6,29.87,ESE,104,0.0,25.0,91,0.00,,,0.00,Wunderground v.1.15,2013-06-07 15:00:00,
2013-06-07 08:06:00,57.2,54.6,29.87,ESE,104,0.0,25.0,91,0.00,,,0.00,Wunderground v.1.15,2013-06-07 15:06:00,
2013-06-07 08:12:00,57.4,54.8,29.87,ESE,104,0.0,25.0,91,0.00,,,0.00,Wunderground v.1.15,2013-06-07 15:12:00,
2013-06-07 08:18:00,57.5,54.6,29.87,ESE,104,0.0,25.0,90,0.00,,,0.00,Wunderground v.1.15,2013-06-07 15:18:00,
2013-06-07 08:24:00,57.6,54.7,29.87,SE,134,0.0,25.0,90,0.00,,,0.00,Wunderground v.1.15,2013-06-07 15:24:00,
2013-06-07 08:29:00,57.7,54.8,29.87,SE,134,0.0,25.0,90,0.00,,,0.00,Wunderground v.1.15,2013-06-07 15:29:00,
2013-06-07 08:35:00,57.7,54.8,29.87,SE,134,0.0,25.0,90,0.00,,,0.00,Wunderground v.1.15,2013-06-07 15:35:00,
2013-06-07 08:41:00,57.8,54.9,29.87,SSW,206,0.0,25.0,90,0.00,,,0.00,Wunderground v.1.15,2013-06-07 15:41:00,
2013-06-07 08:46:00,58.0,55.1,29.87,SSE,168,1.0,25.0,90,0.00,,,0.00,Wunderground v.1.15,2013-06-07 15:46:00,
2013-06-07 08:52:00,58.1,54.9,29.87,SSE,167,0.0,25.0,89,0.00,,,0.00,Wunderground v.1.15,2013-06-07 15:52:00,
2013-06-07 08:57:00,58.3,55.1,29.87,SSE,167,0.0,25.0,89,0.00,,,0.00,Wunderground v.1.15,2013-06-07 15:57:00,
2013-06-07 09:03:00,58.6,55.4,29.87,SSE,167,0.0,25.0,89,0.00,,,0.00,Wunderground v.1.15,2013-06-07 16:03:00,
2013-06-07 09:08:00,59.0,55.4,29.87,SSE,167,0.0,25.0,88,0.00,,,0.00,Wunderground v.1.15,2013-06-07 16:08:00,
2013-06-07 09:13:00,59.5,55.9,29.87,SW,228,1.0,25.0,88,0.00,,,0.00,Wunderground v.1.15,2013-06-07 16:13:00,
2013-06-07 09:18:00,59.6,55.4,29.87,South,169,2.0,25.0,86,0.00,,,0.00,Wunderground v.1.15,2013-06-07 16:18:00,
2013-06-07 09:24:00,59.5,55.3,29.87,SSW,204,2.0,25.0,86,0.00,,,0.00,Wunderground v.1.15,2013-06-07 16:24:00,
2013-06-07 09:30:00,59.9,55.7,29.87,North,9,0.0,25.0,86,0.00,,,0.00,Wunderground v.1.15,2013-06-07 16:30:00,
2013-06-07 09:35:00,60.4,55.9,29.87,South,178,0.0,25.0,85,0.00,,,0.00,Wunderground v.1.15,2013-06-07 16:35:00,
2013-06-07 09:40:00,61.0,56.1,29.87,WNW,292,1.0,1.0,84,0.00,,,0.00,Wunderground v.1.15,2013-06-07 16:40:00,
2013-06-07 09:46:00,61.8,56.6,29.87,SW,227,1.0,25.0,83,0.00,,,0.00,Wunderground v.1.15,2013-06-07 16:46:00,
2013-06-07 09:51:00,62.2,56.6,29.87,SSE,154,2.0,25.0,82,0.00,,,0.00,Wunderground v.1.15,2013-06-07 16:51:00,
2013-06-07 09:56:00,62.6,57.4,29.87,SW,230,2.0,25.0,83,0.00,,,0.00,Wunderground v.1.15,2013-06-07 16:56:00,
2013-06-07 10:02:00,63.6,57.7,29.87,SSW,194,1.0,25.0,81,0.00,,,0.00,Wunderground v.1.15,2013-06-07 17:02:00,
2013-06-07 10:08:00,63.7,57.4,29.87,South,177,3.0,25.0,80,0.00,,,0.00,Wunderground v.1.15,2013-06-07 17:08:00,
2013-06-07 10:13:00,64.3,57.6,29.87,WNW,290,3.0,25.0,79,0.00,,,0.00,Wunderground v.1.15,2013-06-07 17:13:00,
2013-06-07 10:19:00,64.8,58.8,29.87,SSW,200,3.0,25.0,81,0.00,,,0.00,Wunderground v.1.15,2013-06-07 17:19:00,
2013-06-07 10:24:00,65.1,57.7,29.87,SW,222,3.0,25.0,77,0.00,,,0.00,Wunderground v.1.15,2013-06-07 17:24:00,
2013-06-07 10:29:00,65.3,57.9,29.87,SSW,205,4.0,4.0,77,0.00,,,0.00,Wunderground v.1.15,2013-06-07 17:29:00,
2013-06-07 10:35:00,65.7,58.3,29.87,SW,224,3.0,25.0,77,0.00,,,0.00,Wunderground v.1.15,2013-06-07 17:35:00,
2013-06-07 10:40:00,66.4,59.3,29.87,South,172,3.0,25.0,78,0.00,,,0.00,Wunderground v.1.15,2013-06-07 17:40:00,
2013-06-07 10:46:00,66.4,58.6,29.86,WSW,256,4.0,25.0,76,0.00,,,0.00,Wunderground v.1.15,2013-06-07 17:46:00,
2013-06-07 10:53:00,66.9,59.5,29.86,WSW,240,3.0,25.0,77,0.00,,,0.00,Wunderground v.1.15,2013-06-07 17:53:00,
2013-06-07 10:58:00,67.1,58.9,29.86,SSW,196,3.0,25.0,75,0.00,,,0.00,Wunderground v.1.15,2013-06-07 17:58:00,
2013-06-07 11:05:00,67.3,58.7,29.86,SSW,211,4.0,25.0,74,0.00,,,0.00,Wunderground v.1.15,2013-06-07 18:05:00,
2013-06-07 11:11:00,67.4,59.2,29.86,SW,217,4.0,25.0,75,0.00,,,0.00,Wunderground v.1.15,2013-06-07 18:11:00,
2013-06-07 11:16:00,67.7,59.1,29.86,WSW,247,4.0,25.0,74,0.00,,,0.00,Wunderground v.1.15,2013-06-07 18:16:00,
2013-06-07 11:21:00,68.2,59.2,29.86,SW,215,4.0,25.0,73,0.00,,,0.00,Wunderground v.1.15,2013-06-07 18:21:00,
2013-06-07 11:26:00,68.6,58.8,29.85,SSW,205,4.0,25.0,71,0.00,,,0.00,Wunderground v.1.15,2013-06-07 18:26:00,
2013-06-07 11:31:00,69.1,60.1,29.85,South,176,4.0,25.0,73,0.00,,,0.00,Wunderground v.1.15,2013-06-07 18:31:00,
2013-06-07 11:37:00,69.8,60.0,29.85,SSW,194,4.0,25.0,71,0.00,,,0.00,Wunderground v.1.15,2013-06-07 18:37:00,
2013-06-07 11:42:00,70.0,59.8,29.85,West,261,4.0,25.0,70,0.00,,,0.00,Wunderground v.1.15,2013-06-07 18:42:00,
2013-06-07 11:49:00,70.4,58.9,29.85,SW,234,5.0,25.0,67,0.00,,,0.00,Wunderground v.1.15,2013-06-07 18:49:00,
2013-06-07 11:54:00,70.5,60.2,29.85,WSW,244,6.0,25.0,70,0.00,,,0.00,Wunderground v.1.15,2013-06-07 18:54:00,
2013-06-07 11:59:00,70.9,59.4,29.85,West,265,5.0,25.0,67,0.00,,,0.00,Wunderground v.1.15,2013-06-07 18:59:00,
2013-06-07 12:05:00,71.2,59.3,29.84,SW,217,5.0,25.0,66,0.00,,,0.00,Wunderground v.1.15,2013-06-07 19:05:00,
2013-06-07 12:11:00,71.3,59.8,29.84,SW,219,4.0,25.0,67,0.00,,,0.00,Wunderground v.1.15,2013-06-07 19:11:00,
2013-06-07 12:16:00,71.3,59.8,29.84,West,271,5.0,25.0,67,0.00,,,0.00,Wunderground v.1.15,2013-06-07 19:16:00,
2013-06-07 12:22:00,71.5,59.5,29.84,WSW,250,6.0,25.0,66,0.00,,,0.00,Wunderground v.1.15,2013-06-07 19:22:00,
2013-06-07 12:28:00,71.5,59.1,29.84,SW,215,6.0,25.0,65,0.00,,,0.00,Wunderground v.1.15,2013-06-07 19:28:00,
2013-06-07 12:33:00,71.3,59.8,29.84,SSW,205,6.0,25.0,67,0.00,,,0.00,Wunderground v.1.15,2013-06-07 19:33:00,
2013-06-07 12:39:00,71.1,59.6,29.84,SW,232,6.0,25.0,67,0.00,,,0.00,Wunderground v.1.15,2013-06-07 19:39:00,
2013-06-07 12:45:00,71.4,59.0,29.84,WSW,248,6.0,25.0,65,0.00,,,0.00,Wunderground v.1.15,2013-06-07 19:45:00,
2013-06-07 12:51:00,71.6,60.1,29.83,SW,227,5.0,25.0,67,0.00,,,0.00,Wunderground v.1.15,2013-06-07 19:51:00,
2013-06-07 12:57:00,71.5,59.5,29.84,SSW,192,6.0,25.0,66,0.00,,,0.00,Wunderground v.1.15,2013-06-07 19:57:00,
2013-06-07 13:02:00,71.6,59.2,29.83,WNW,288,7.0,9.0,65,0.00,,,0.00,Wunderground v.1.15,2013-06-07 20:02:00,
2013-06-07 13:07:00,71.6,59.6,29.83,SSW,207,7.0,25.0,66,0.00,,,0.00,Wunderground v.1.15,2013-06-07 20:07:00,
2013-06-07 13:12:00,71.7,59.3,29.83,WSW,250,7.0,25.0,65,0.00,,,0.00,Wunderground v.1.15,2013-06-07 20:12:00,
2013-06-07 13:17:00,71.9,59.5,29.83,WSW,248,7.0,25.0,65,0.00,,,0.00,Wunderground v.1.15,2013-06-07 20:17:00,
2013-06-07 13:22:00,72.2,59.3,29.83,West,261,6.0,25.0,64,0.00,,,0.00,Wunderground v.1.15,2013-06-07 20:22:00,
2013-06-07 13:27:00,72.6,60.6,29.83,SW,225,5.0,25.0,66,0.00,,,0.00,Wunderground v.1.15,2013-06-07 20:27:00,
2013-06-07 13:32:00,72.9,58.7,29.83,WSW,247,6.0,25.0,61,0.00,,,0.00,Wunderground v.1.15,2013-06-07 20:32:00,
2013-06-07 13:38:00,72.7,59.8,29.83,West,261,6.0,25.0,64,0.00,,,0.00,Wunderground v.1.15,2013-06-07 20:38:00,
2013-06-07 13:43:00,72.7,59.4,29.82,West,276,6.0,25.0,63,0.00,,,0.00,Wunderground v.1.15,2013-06-07 20:43:00,
2013-06-07 13:49:00,72.6,59.3,29.82,WSW,257,7.0,25.0,63,0.00,,,0.00,Wunderground v.1.15,2013-06-07 20:49:00,
2013-06-07 13:55:00,72.8,59.5,29.82,SW,215,7.0,25.0,63,0.00,,,0.00,Wunderground v.1.15,2013-06-07 20:55:00,
2013-06-07 14:01:00,72.7,59.4,29.82,WSW,240,7.0,25.0,63,0.00,,,0.00,Wunderground v.1.15,2013-06-07 21:01:00,
2013-06-07 14:06:00,72.9,59.6,29.82,West,271,7.0,25.0,63,0.00,,,0.00,Wunderground v.1.15,2013-06-07 21:06:00,
2013-06-07 14:11:00,73.1,60.2,29.81,SW,226,6.0,25.0,64,0.00,,,0.00,Wunderground v.1.15,2013-06-07 21:11:00,
2013-06-07 14:17:00,73.4,60.0,29.81,SW,221,6.0,25.0,63,0.00,,,0.00,Wunderground v.1.15,2013-06-07 21:17:00,
2013-06-07 14:23:00,73.3,59.9,29.81,WSW,240,6.0,25.0,63,0.00,,,0.00,Wunderground v.1.15,2013-06-07 21:23:00,
2013-06-07 14:29:00,73.1,58.8,29.81,SW,234,6.0,25.0,61,0.00,,,0.00,Wunderground v.1.15,2013-06-07 21:29:00,
2013-06-07 14:35:00,73.4,60.0,29.81,WSW,239,7.0,25.0,63,0.00,,,0.00,Wunderground v.1.15,2013-06-07 21:35:00,
2013-06-07 14:40:00,73.2,59.4,29.81,SW,223,6.0,25.0,62,0.00,,,0.00,Wunderground v.1.15,2013-06-07 21:40:00,
2013-06-07 14:46:00,73.6,59.8,29.81,WSW,237,6.0,25.0,62,0.00,,,0.00,Wunderground v.1.15,2013-06-07 21:46:00,
2013-06-07 14:52:00,73.8,60.0,29.80,WSW,251,5.0,25.0,62,0.00,,,0.00,Wunderground v.1.15,2013-06-07 21:52:00,
2013-06-07 14:58:00,74.1,59.8,29.80,SSW,195,5.0,25.0,61,0.00,,,0.00,Wunderground v.1.15,2013-06-07 21:58:00,
2013-06-07 15:04:00,74.2,59.4,29.80,SW,221,6.0,25.0,60,0.00,,,0.00,Wunderground v.1.15,2013-06-07 22:04:00,
2013-06-07 15:10:00,74.4,60.5,29.80,SW,215,4.0,4.0,62,0.00,,,0.00,Wunderground v.1.15,2013-06-07 22:10:00,
2013-06-07 15:16:00,74.4,59.6,29.79,SW,219,4.0,25.0,60,0.00,,,0.00,Wunderground v.1.15,2013-06-07 22:16:00,
2013-06-07 15:22:00,74.4,59.6,29.79,South,187,6.0,25.0,60,0.00,,,0.00,Wunderground v.1.15,2013-06-07 22:22:00,
2013-06-07 15:28:00,74.2,59.4,29.78,SSW,204,6.0,25.0,60,0.00,,,0.00,Wunderground v.1.15,2013-06-07 22:28:00,
2013-06-07 15:33:00,74.4,60.1,29.78,SW,222,5.0,25.0,61,0.00,,,0.00,Wunderground v.1.15,2013-06-07 22:33:00,
2013-06-07 15:38:00,74.3,59.5,29.78,WSW,240,5.0,25.0,60,0.00,,,0.00,Wunderground v.1.15,2013-06-07 22:38:00,
2013-06-07 15:43:00,74.0,59.2,29.78,SW,221,6.0,25.0,60,0.00,,,0.00,Wunderground v.1.15,2013-06-07 22:43:00,
2013-06-07 15:48:00,73.8,59.0,29.78,West,278,7.0,25.0,60,0.00,,,0.00,Wunderground v.1.15,2013-06-07 22:48:00,
2013-06-07 15:54:00,73.8,59.0,29.78,WSW,248,7.0,25.0,60,0.00,,,0.00,Wunderground v.1.15,2013-06-07 22:54:00,
2013-06-07 15:58:00,73.3,58.6,29.78,SW,221,7.0,25.0,60,0.00,,,0.00,Wunderground v.1.15,2013-06-07 22:58:00,
2013-06-07 16:04:00,73.2,58.5,29.78,SW,215,7.0,25.0,60,0.00,,,0.00,Wunderground v.1.15,2013-06-07 23:04:00,
2013-06-07 16:10:00,72.9,59.1,29.78,SW,222,6.0,6.0,62,0.00,,,0.00,Wunderground v.1.15,2013-06-07 23:10:00,
2013-06-07 16:16:00,72.7,58.5,29.78,WSW,244,6.0,25.0,61,0.00,,,0.00,Wunderground v.1.15,2013-06-07 23:16:00,
2013-06-07 16:22:00,71.6,58.3,29.78,West,260,8.0,10.0,63,0.00,,,0.00,Wunderground v.1.15,2013-06-07 23:22:00,
2013-06-07 16:27:00,71.3,58.5,29.77,West,260,8.0,25.0,64,0.00,,,0.00,Wunderground v.1.15,2013-06-07 23:27:00,
2013-06-07 16:33:00,71.1,58.3,29.77,WSW,246,8.0,25.0,64,0.00,,,0.00,Wunderground v.1.15,2013-06-07 23:33:00,
2013-06-07 16:39:00,70.7,58.4,29.78,WSW,253,8.0,25.0,65,0.00,,,0.00,Wunderground v.1.15,2013-06-07 23:39:00,
2013-06-07 16:45:00,70.5,59.0,29.78,SW,233,7.0,25.0,67,0.00,,,0.00,Wunderground v.1.15,2013-06-07 23:45:00,
2013-06-07 16:51:00,70.7,58.4,29.78,WSW,240,7.0,11.0,65,0.00,,,0.00,Wunderground v.1.15,2013-06-07 23:51:00,
2013-06-07 16:57:00,70.2,58.3,29.77,SW,233,7.0,25.0,66,0.00,,,0.00,Wunderground v.1.15,2013-06-07 23:57:00,
2013-06-07 17:02:00,70.4,58.9,29.77,SW,219,6.0,25.0,67,0.00,,,0.00,Wunderground v.1.15,2013-06-08 00:02:00,
2013-06-07 17:07:00,70.2,58.3,29.77,SW,219,6.0,25.0,66,0.00,,,0.00,Wunderground v.1.15,2013-06-08 00:07:00,
2013-06-07 17:12:00,70.4,58.9,29.77,SW,229,6.0,25.0,67,0.00,,,0.00,Wunderground v.1.15,2013-06-08 00:12:00,
2013-06-07 17:18:00,70.0,58.1,29.77,SSW,198,5.0,25.0,66,0.00,,,0.00,Wunderground v.1.15,2013-06-08 00:18:00,
2013-06-07 17:23:00,69.4,58.0,29.77,SSW,209,6.0,25.0,67,0.00,,,0.00,Wunderground v.1.15,2013-06-08 00:23:00,
2013-06-07 17:29:00,69.0,58.0,29.77,SW,223,7.0,25.0,68,0.00,,,0.00,Wunderground v.1.15,2013-06-08 00:29:00,
2013-06-07 17:34:00,68.9,58.3,29.77,WSW,256,6.0,25.0,69,0.00,,,0.00,Wunderground v.1.15,2013-06-08 00:34:00,
2013-06-07 17:39:00,68.9,58.3,29.77,WSW,239,4.0,25.0,69,0.00,,,0.00,Wunderground v.1.15,2013-06-08 00:39:00,
2013-06-07 17:45:00,68.6,58.0,29.78,WSW,238,5.0,25.0,69,0.00,,,0.00,Wunderground v.1.15,2013-06-08 00:45:00,
2013-06-07 17:50:00,68.2,57.6,29.78,SSW,213,6.0,6.0,69,0.00,,,0.00,Wunderground v.1.15,2013-06-08 00:50:00,
2013-06-07 17:56:00,67.4,57.3,29.78,SW,232,8.0,25.0,70,0.00,,,0.00,Wunderground v.1.15,2013-06-08 00:56:00,
2013-06-07 18:02:00,66.5,57.2,29.78,SW,219,7.0,25.0,72,0.00,,,0.00,Wunderground v.1.15,2013-06-08 01:02:00,
2013-06-07 18:08:00,66.3,57.4,29.77,WSW,238,5.0,25.0,73,0.00,,,0.00,Wunderground v.1.15,2013-06-08 01:08:00,
2013-06-07 18:14:00,65.9,57.0,29.78,WSW,245,5.0,25.0,73,0.00,,,0.00,Wunderground v.1.15,2013-06-08 01:14:00,
2013-06-07 18:19:00,65.7,57.2,29.78,SW,214,5.0,25.0,74,0.00,,,0.00,Wunderground v.1.15,2013-06-08 01:19:00,
2013-06-07 18:25:00,65.3,57.2,29.77,WSW,253,5.0,25.0,75,0.00,,,0.00,Wunderground v.1.15,2013-06-08 01:25:00,
2013-06-07 18:31:00,65.0,56.9,29.78,WSW,239,5.0,25.0,75,0.00,,,0.00,Wunderground v.1.15,2013-06-08 01:31:00,
2013-06-07 18:36:00,64.8,57.1,29.78,WSW,246,5.0,25.0,76,0.00,,,0.00,Wunderground v.1.15,2013-06-08 01:36:00,
2013-06-07 18:42:00,64.5,57.1,29.78,SSW,209,5.0,25.0,77,0.00,,,0.00,Wunderground v.1.15,2013-06-08 01:42:00,
2013-06-07 18:50:00,64.1,56.7,29.78,SW,224,4.0,25.0,77,0.00,,,0.00,Wunderground v.1.15,2013-06-08 01:50:00,
2013-06-07 18:55:00,64.0,57.0,29.78,South,190,4.0,25.0,78,0.00,,,0.00,Wunderground v.1.15,2013-06-08 01:55:00,
2013-06-07 19:00:00,63.8,56.8,29.78,SW,225,3.0,25.0,78,0.00,,,0.00,Wunderground v.1.15,2013-06-08 02:00:00,
2013-06-07 19:06:00,63.6,57.0,29.78,SW,224,4.0,25.0,79,0.00,,,0.00,Wunderground v.1.15,2013-06-08 02:06:00,
2013-06-07 19:12:00,63.5,56.9,29.78,SW,218,3.0,25.0,79,0.00,,,0.00,Wunderground v.1.15,2013-06-08 02:12:00,
2013-06-07 19:17:00,63.4,56.8,29.78,WSW,254,2.0,25.0,79,0.00,,,0.00,Wunderground v.1.15,2013-06-08 02:17:00,
2013-06-07 19:23:00,63.2,56.6,29.79,SW,233,3.0,25.0,79,0.00,,,0.00,Wunderground v.1.15,2013-06-08 02:23:00,
2013-06-07 19:29:00,63.0,56.7,29.79,West,259,4.0,25.0,80,0.00,,,0.00,Wunderground v.1.15,2013-06-08 02:29:00,
2013-06-07 19:34:00,62.6,56.7,29.79,SW,231,4.0,25.0,81,0.00,,,0.00,Wunderground v.1.15,2013-06-08 02:34:00,
2013-06-07 19:40:00,62.3,56.4,29.80,SW,232,4.0,25.0,81,0.00,,,0.00,Wunderground v.1.15,2013-06-08 02:40:00,
2013-06-07 19:46:00,61.9,56.3,29.80,SW,234,4.0,25.0,82,0.00,,,0.00,Wunderground v.1.15,2013-06-08 02:46:00,
2013-06-07 19:52:00,61.6,56.4,29.80,SSW,207,5.0,25.0,83,0.00,,,0.00,Wunderground v.1.15,2013-06-08 02:52:00,
2013-06-07 19:57:00,61.3,56.1,29.80,SW,231,5.0,25.0,83,0.00,,,0.00,Wunderground v.1.15,2013-06-08 02:57:00,
2013-06-07 20:03:00,61.0,56.1,29.80,WSW,243,4.0,25.0,84,0.00,,,0.00,Wunderground v.1.15,2013-06-08 03:03:00,
2013-06-07 20:08:00,60.8,55.9,29.81,SW,236,5.0,25.0,84,0.00,,,0.00,Wunderground v.1.15,2013-06-08 03:08:00,
2013-06-07 20:13:00,60.6,56.1,29.81,SW,220,5.0,25.0,85,0.00,,,0.00,Wunderground v.1.15,2013-06-08 03:13:00,
2013-06-07 20:19:00,60.4,55.9,29.81,WSW,243,3.0,25.0,85,0.00,,,0.00,Wunderground v.1.15,2013-06-08 03:19:00,
2013-06-07 20:25:00,60.1,55.9,29.81,WSW,243,4.0,25.0,86,0.00,,,0.00,Wunderground v.1.15,2013-06-08 03:25:00,
2013-06-07 20:30:00,60.0,55.8,29.81,WSW,238,3.0,25.0,86,0.00,,,0.00,Wunderground v.1.15,2013-06-08 03:30:00,
2013-06-07 20:36:00,59.8,55.9,29.81,WSW,257,3.0,25.0,87,0.00,,,0.00,Wunderground v.1.15,2013-06-08 03:36:00,
2013-06-07 20:41:00,59.7,55.8,29.81,WSW,242,3.0,25.0,87,0.00,,,0.00,Wunderground v.1.15,2013-06-08 03:41:00,
2013-06-07 20:47:00,59.5,55.9,29.81,WSW,250,3.0,25.0,88,0.00,,,0.00,Wunderground v.1.15,2013-06-08 03:47:00,
2013-06-07 20:54:00,59.4,55.8,29.81,SW,222,3.0,25.0,88,0.00,,,0.00,Wunderground v.1.15,2013-06-08 03:54:00,
2013-06-07 20:59:00,59.3,55.7,29.82,WSW,258,2.0,2.0,88,0.00,,,0.00,Wunderground v.1.15,2013-06-08 03:59:00,
2013-06-07 21:01:00,59.3,55.7,29.82,WSW,258,2.0,25.0,88,0.00,,,0.00,Wunderground v.1.15,2013-06-08 04:01:00,
2013-06-07 21:04:00,59.2,55.6,29.82,WSW,246,1.0,25.0,88,0.00,,,0.00,Wunderground v.1.15,2013-06-08 04:04:00,
2013-06-07 21:07:00,59.2,55.6,29.82,West,265,1.0,25.0,88,0.00,,,0.00,Wunderground v.1.15,2013-06-08 04:07:00,
2013-06-07 21:13:00,59.1,55.9,29.82,WSW,254,2.0,25.0,89,0.00,,,0.00,Wunderground v.1.15,2013-06-08 04:13:00,
2013-06-07 21:19:00,59.1,55.9,29.82,SW,221,2.0,25.0,89,0.00,,,0.00,Wunderground v.1.15,2013-06-08 04:19:00,
2013-06-07 21:23:00,59.1,55.9,29.82,WSW,240,2.0,25.0,89,0.00,,,0.00,Wunderground v.1.15,2013-06-08 04:23:00,
2013-06-07 21:28:00,59.1,55.9,29.82,SW,236,4.0,25.0,89,0.00,,,0.00,Wunderground v.1.15,2013-06-08 04:28:00,
2013-06-07 21:34:00,59.1,55.9,29.83,SW,236,3.0,25.0,89,0.00,,,0.00,Wunderground v.1.15,2013-06-08 04:34:00,
2013-06-07 21:40:00,59.2,56.0,29.83,WSW,240,2.0,2.0,89,0.00,,,0.00,Wunderground v.1.15,2013-06-08 04:40:00,
2013-06-07 21:45:00,59.3,56.1,29.83,SSW,212,2.0,25.0,89,0.00,,,0.00,Wunderground v.1.15,2013-06-08 04:45:00,
2013-06-07 21:50:00,59.3,56.1,29.83,WSW,240,2.0,25.0,89,0.00,,,0.00,Wunderground v.1.15,2013-06-08 04:50:00,
2013-06-07 21:55:00,59.4,56.2,29.83,SSW,211,1.0,25.0,89,0.00,,,0.00,Wunderground v.1.15,2013-06-08 04:55:00,
2013-06-07 22:01:00,59.4,56.2,29.83,SW,217,1.0,2.0,89,0.00,,,0.00,Wunderground v.1.15,2013-06-08 05:01:00,
2013-06-07 22:07:00,59.4,56.2,29.83,WSW,238,1.0,25.0,89,0.00,,,0.00,Wunderground v.1.15,2013-06-08 05:07:00,
2013-06-07 22:13:00,59.4,56.2,29.83,SSW,211,1.0,25.0,89,0.00,,,0.00,Wunderground v.1.15,2013-06-08 05:13:00,
2013-06-07 22:18:00,59.4,56.2,29.83,WSW,246,3.0,25.0,89,0.00,,,0.00,Wunderground v.1.15,2013-06-08 05:18:00,
2013-06-07 22:24:00,59.4,56.2,29.83,SW,232,2.0,25.0,89,0.00,,,0.00,Wunderground v.1.15,2013-06-08 05:24:00,
2013-06-07 22:30:00,59.4,56.2,29.83,SW,228,0.0,25.0,89,0.00,,,0.00,Wunderground v.1.15,2013-06-08 05:30:00,
2013-06-07 22:36:00,59.4,56.2,29.83,SW,217,1.0,25.0,89,0.00,,,0.00,Wunderground v.1.15,2013-06-08 05:36:00,
2013-06-07 22:41:00,59.4,56.2,29.83,SW,220,1.0,25.0,89,0.00,,,0.00,Wunderground v.1.15,2013-06-08 05:41:00,
2013-06-07 22:46:00,59.4,56.2,29.83,SW,217,1.0,25.0,89,0.00,,,0.00,Wunderground v.1.15,2013-06-08 05:46:00,
2013-06-07 22:52:00,59.4,56.2,29.83,SW,217,1.0,25.0,89,0.00,,,0.00,Wunderground v.1.15,2013-06-08 05:52:00,
2013-06-07 22:58:00,59.3,56.1,29.83,SW,217,0.0,25.0,89,0.00,,,0.00,Wunderground v.1.15,2013-06-08 05:58:00,
2013-06-07 23:04:00,59.2,56.0,29.83,SW,217,0.0,25.0,89,0.00,,,0.00,Wunderground v.1.15,2013-06-08 06:04:00,
2013-06-07 23:10:00,59.2,56.0,29.83,WSW,244,0.0,25.0,89,0.00,,,0.00,Wunderground v.1.15,2013-06-08 06:10:00,
2013-06-07 23:16:00,59.2,56.0,29.83,WSW,238,1.0,25.0,89,0.00,,,0.00,Wunderground v.1.15,2013-06-08 06:16:00,
2013-06-07 23:22:00,59.2,56.0,29.83,WSW,242,1.0,25.0,89,0.00,,,0.00,Wunderground v.1.15,2013-06-08 06:22:00,
2013-06-07 23:28:00,59.1,55.9,29.83,SW,234,1.0,25.0,89,0.00,,,0.00,Wunderground v.1.15,2013-06-08 06:28:00,
2013-06-07 23:33:00,59.2,56.0,29.83,SW,234,1.0,25.0,89,0.00,,,0.00,Wunderground v.1.15,2013-06-08 06:33:00,
2013-06-07 23:39:00,59.2,56.0,29.83,WSW,248,1.0,25.0,89,0.00,,,0.00,Wunderground v.1.15,2013-06-08 06:39:00,
2013-06-07 23:45:00,59.1,55.9,29.83,WSW,248,1.0,25.0,89,0.00,,,0.00,Wunderground v.1.15,2013-06-08 06:45:00,
2013-06-07 23:51:00,59.1,55.9,29.83,WSW,248,0.0,25.0,89,0.00,,,0.00,Wunderground v.1.15,2013-06-08 06:51:00,
2013-06-07 23:56:00,59.2,56.0,29.83,WSW,248,0.0,25.0,89,0.00,,,0.00,Wunderground v.1.15,2013-06-08 06:56:00,